TimePDT,TemperatureF,Dew PointF,Humidity,Sea Level PressureIn,VisibilityMPH,Wind Direction,Wind SpeedMPH,Gust SpeedMPH,PrecipitationIn,Events,Conditions,WindDirDegrees,DateUTC
12:55 AM,30.0,15.1,54,30.43,10.0,Calm,Calm,-,N/A,,Clear,0,2013-10-05 07:55:00
1:55 AM,28.0,14.0,56,30.42,10.0,Calm,Calm,-,N/A,,Clear,0,2013-10-05 08:55:00
2:55 AM,26.1,16.0,66,30.42,10.0,Calm,Calm,-,N/A,,Clear,0,2013-10-05 09:55:00
3:55 AM,24.1,14.0,65,30.42,10.0,Calm,Calm,-,N/A,,Clear,0,2013-10-05 10:55:00
4:55 AM,23.0,15.1,72,30.43,10.0,Calm,Calm,-,N/A,,Clear,0,2013-10-05 11:55:00
5:55 AM,19.0,12.0,74,30.45,10.0,South,3.5,-,N/A,,Clear,170,2013-10-05 12:55:00
6:55 AM,19.0,12.0,74,30.45,10.0,Calm,Calm,-,N/A,,Clear,0,2013-10-05 13:55:00
7:55 AM,27.0,17.1,66,30.45,10.0,Calm,Calm,-,N/A,,Clear,0,2013-10-05 14:55:00
8:55 AM,39.0,24.1,55,30.44,10.0,East,4.6,-,N/A,,Clear,100,2013-10-05 15:55:00
9:55 AM,50.0,21.0,32,30.41,10.0,ENE,3.5,-,N/A,,Clear,60,2013-10-05 16:55:00
10:55 AM,57.0,18.0,22,30.38,10.0,NE,5.8,-,N/A,,Clear,50,2013-10-05 17:55:00
11:55 AM,61.0,19.0,20,30.36,10.0,Calm,Calm,-,N/A,,Clear,0,2013-10-05 18:55:00
12:55 PM,68.0,17.1,14,30.32,10.0,SSE,9.2,20.7,N/A,,Clear,150,2013-10-05 19:55:00
1:55 PM,69.1,16.0,13,30.30,10.0,SSE,5.8,-,N/A,,Clear,150,2013-10-05 20:55:00
2:55 PM,71.1,14.0,11,30.29,10.0,Variable,5.8,-,N/A,,Clear,0,2013-10-05 21:55:00
3:55 PM,73.0,12.9,10,30.27,10.0,SE,6.9,-,N/A,,Clear,140,2013-10-05 22:55:00
4:55 PM,72.0,10.0,9,30.27,10.0,SSE,4.6,-,N/A,,Clear,160,2013-10-05 23:55:00
5:55 PM,70.0,16.0,13,30.28,10.0,SSE,5.8,-,N/A,,Clear,150,2013-10-06 00:55:00
6:55 PM,59.0,19.0,21,30.32,10.0,South,4.6,-,N/A,,Clear,170,2013-10-06 01:55:00
7:55 PM,52.0,16.0,24,30.31,10.0,East,3.5,-,N/A,,Clear,90,2013-10-06 02:55:00
8:55 PM,51.1,14.0,23,30.30,10.0,Variable,3.5,-,N/A,,Clear,0,2013-10-06 03:55:00
9:55 PM,48.0,16.0,28,30.28,10.0,ESE,4.6,-,N/A,,Clear,120,2013-10-06 04:55:00
10:55 PM,41.0,16.0,36,30.28,4.0,ENE,3.5,-,N/A,,Haze,60,2013-10-06 05:55:00
11:55 PM,39.9,15.1,36,30.27,10.0,Calm,Calm,-,N/A,,Clear,0,2013-10-06 06:55:00